Tracking 30306 objects as of 22-Apr-2025
HD Live streaming from Space Station
objects crossing your sky now

THORAD DELTA 1 DEB

Track THORAD DELTA 1 DEB now!
10-day predictions


NORAD ID: 8784
Int'l Code: 1974-089DL
Perigee: 935.9 km
Apogee: 1,307.0 km
Inclination: 100.9 °
Period: 107.6 minutes
Semi major axis: 7492 km
RCS: 0.0626 m2 (small)
Launch date: November 15, 1974
Source: United States (US)
Launch site: AIR FORCE WESTERN TEST RANGE (AFWTR)

Note: This is SATELLITE DEBRIS
Your satellite tracking list
Your tracking list is empty




NASA's NSSDC Master Catalog

Two Line Element Set (TLE):
1  8784U 74089DL  25111.50707274  .00018006  00000-0  28294-1 0  9998
2  8784 100.8872 119.3173 0247614 116.3876  46.3199 13.38653706475826
Source of the keplerian elements: AFSPC